Time,TemperatureF,DewpointF,PressureIn,WindDirection,WindDirectionDegrees,WindSpeedMPH,WindSpeedGustMPH,Humidity,HourlyPrecipIn,Conditions,Clouds,dailyrainin,SoftwareType,DateUTC
2013-04-25 17:00:00,69.3,20.1,29.99,SSW,203,4.0,4.0,16,0.00,,,0.00,WUHU216HW,2013-04-25 23:00:00,
2013-04-25 17:01:00,69.5,20.3,29.99,SSW,203,5.8,9.8,16,0.00,,,0.00,WUHU216HW,2013-04-25 23:01:00,
2013-04-25 17:06:00,69.5,20.3,29.99,WSW,248,5.1,9.8,16,0.00,,,0.00,WUHU216HW,2013-04-25 23:06:00,
2013-04-25 17:11:00,69.5,20.3,29.99,WSW,248,5.1,7.2,16,0.00,,,0.00,WUHU216HW,2013-04-25 23:11:00,
2013-04-25 17:33:00,69.1,18.4,29.99,WSW,248,7.6,7.6,15,0.00,,,0.00,WUHU216HW,2013-04-25 23:33:00,
2013-04-25 17:38:00,69.1,18.4,29.99,WSW,248,7.6,7.6,15,0.00,,,0.00,WUHU216HW,2013-04-25 23:38:00,
2013-04-25 18:00:00,67.7,14.0,30.00,WSW,248,3.6,4.0,13,0.00,,,0.00,WUHU216HW,2013-04-26 00:00:00,
2013-04-25 18:05:00,67.7,14.0,30.00,WSW,248,3.6,4.0,13,0.00,,,0.00,WUHU216HW,2013-04-26 00:05:00,
2013-04-25 18:30:00,68.4,19.5,30.00,WNW,293,1.6,1.6,16,0.00,,,0.00,WUHU216HW,2013-04-26 00:30:00,
2013-04-25 18:35:00,68.4,19.5,30.00,WNW,293,1.6,1.6,16,0.00,,,0.00,WUHU216HW,2013-04-26 00:35:00,
2013-04-25 19:00:00,66.2,16.0,30.01,NNW,338,2.0,2.0,15,0.00,,,0.00,WUHU216HW,2013-04-26 01:00:00,
2013-04-25 19:05:00,66.2,16.0,30.01,NNW,338,2.0,2.0,15,0.00,,,0.00,WUHU216HW,2013-04-26 01:05:00,
2013-04-25 19:30:00,64.4,17.7,30.02,NNW,338,2.2,2.2,17,0.00,,,0.00,WUHU216HW,2013-04-26 01:30:00,
2013-04-25 19:35:00,64.4,17.7,30.02,NNW,338,2.2,2.2,17,0.00,,,0.00,WUHU216HW,2013-04-26 01:35:00,
2013-04-25 20:00:00,60.8,18.1,30.03,West,270,3.8,3.8,19,0.00,,,0.00,WUHU216HW,2013-04-26 02:00:00,
2013-04-25 20:05:00,60.8,18.1,30.03,West,270,3.8,3.8,19,0.00,,,0.00,WUHU216HW,2013-04-26 02:05:00,
2013-04-25 20:30:00,57.1,17.4,30.05,WNW,293,3.1,3.1,21,0.00,,,0.00,WUHU216HW,2013-04-26 02:30:00,
2013-04-25 20:35:00,57.1,17.4,30.05,WNW,293,3.1,3.1,21,0.00,,,0.00,WUHU216HW,2013-04-26 02:35:00,
2013-04-25 21:00:00,54.2,17.8,30.07,WSW,248,4.3,4.3,24,0.00,,,0.00,WUHU216HW,2013-04-26 03:00:00,
2013-04-25 21:05:00,54.2,17.8,30.07,WSW,248,4.3,4.3,24,0.00,,,0.00,WUHU216HW,2013-04-26 03:05:00,